sat.trackr.live / text

‹ back to catalog

STARLINK-30799

NORAD 58121 · 2023-162D

PAYLOAD ACTIVE UNKNOWN

§ Identity

Operator
Country
US
Launch date
2023-10-22
Launch site
AFETR
Launch vehicle
Mass (kg)
RCS (m²)

Purposes: comms

External: N2YO · Heavens-Above · Gunter

§ Orbital elements

Epoch: 2026-09-19T23:41:10.453056Z

Period
94.27 min
Inclination
43.0049°
Eccentricity
0.0001743
Mean motion
15.27584419 rev/d
Perigee alt
481.8 km
Apogee alt
484.2 km
Semi-major
6,861.2 km
B*
1.6202e-5
RAAN
115.0822°
Arg perigee
267.6849°
Mean anomaly
92.3803°
Rev number
16,202

§ Raw data

STARLINK-307991 58121U 23162D   26262.98692654  .00000184  00000+0  16202-4 0  99952 58121  43.0049 115.0822 0001743 267.6849  92.3803 15.27584419162027

JSON: /api/v1/satellites/58121 · /tle

For live sub-satellite position, see the globe view (requires WebGL).

§ Visibility from observer

Set your observer location to see the next 7 days of passes ≥ 10°. The values pass through the URL so the page stays shareable.

No JS? Fill the form by hand. The geolocation button needs JavaScript.